User: anonymous   Login
Location: Unspecified
(0.0000°N, 0.0000°E)
Time: 21:52:38
(UTC+00:00)
Language:

STARLINK-33848 - Orbit

View from above orbital plane
View from above orbital plane
View from above satellite
View from above satellite

Ground track
Ground track

The orbit is defined by the following mean orbital elements,

1 63705U          26145.51187447 +.00000000 +00000-0 +25364-3 0 00002
2 63705  53.1586 222.5693 0001151  85.5020 274.6113 15.30200581    07
Epoch (UTC): 25 May 2026 12:17:05
Eccentricity: 0.0001151
inclination: 53.1586°
perigee height: 474 km
apogee height: 476 km
right ascension of ascending node: 222.5693°
argument of perigee: 85.5020°
revolutions per day: 15.30200581
mean anomaly at epoch: 274.6113°

The dashed part of the orbit path shows where the satellite is in the earth's shadow,  

DLR